Brookings, OR

12:39 AM PST on February 24, 2017 (GMT -0800)
Brookings State

Weather History for KBOK - March, 2014

Change the Weather History Date:

Friday, March 7, 2014

  Actual Average Record
Temperature  
Mean Temperature 53 °F -  
Max Temperature 59 °F 57 °F 74 °F (1932)
Min Temperature 46 °F 41 °F 31 °F (1974)
Degree Days  
Heating Degree Days 12    
Growing Degree Days 3 (Base 50)    
Moisture  
Dew Point 49 °F    
Average Humidity 92    
Maximum Humidity 100    
Minimum Humidity 58    
Precipitation  
Precipitation 0.11 in - - ()
Sea Level Pressure  
Sea Level Pressure 30.24 in    
Wind  
Wind Speed 4 mph (SSW)    
Max Wind Speed 12 mph    
Max Gust Speed -    
Visibility 4 miles    
Events Rain    
Averages and records for this station are not official NWS values.
T = Trace of Precipitation, MM = Missing Value Source: NWS Daily Summary

Daily Weather History Graph

Daily Weather History Graph

Search for Another Location

Airport or City:

Trip Planner

Search our weather history database for the weather conditions in past years. The results will help you decide how hot, cold, wet, or windy it might be!

Date:

Astronomy

Mar. 07, 2014 Rise Set
Actual Time 6:42 AM PST 6:14 PM PST
Civil Twilight 6:14 AM PST 6:42 PM PST
Nautical Twilight 5:42 AM PST 7:14 PM PST
Astronomical Twilight 5:09 AM PST 7:47 PM PST
Moon 10:33 AM PST (3/7) 12:30 AM PST (3/7)
Length of Visible Light 12h 28m
Length of Day
11h 32m
Waxing Crescent, 43% of the Moon is Illuminated
Mar 7
Waxing Crescent
Mar 8
First Quarter
Mar 16
Full
Mar 23
Last Quarter
Mar 30
New

Hourly Weather History & Observations

Time (PST) Temp. Dew Point Humidity Pressure Visibility Wind Dir Wind Speed Gust Speed Precip Events Conditions
12:10 AM 51.8 °F 51.8 °F 100% 30.25 in 1.0 mi South 4.6 mph - 0.00 in   Overcast
12:19 AM 51.8 °F 51.8 °F 100% 30.26 in 1.5 mi SSW 4.6 mph - 0.00 in   Overcast
12:56 AM 50.9 °F 50.9 °F 100% 30.28 in 1.2 mi South 3.5 mph - 0.00 in   Overcast
1:07 AM 51.8 °F 51.8 °F 100% 30.27 in 1.0 mi South 3.5 mph - N/A   Overcast
1:17 AM 51.8 °F 51.8 °F 100% 30.27 in 0.8 mi South 4.6 mph - N/A   Overcast
1:22 AM 51.8 °F 51.8 °F 100% 30.27 in 1.2 mi SSE 4.6 mph - N/A   Overcast
1:30 AM 50.0 °F 50.0 °F 100% 30.27 in 1.5 mi SSE 5.8 mph - N/A   Overcast
1:47 AM 50.0 °F 50.0 °F 100% 30.27 in 3.0 mi SE 5.8 mph - N/A   Overcast
1:56 AM 50.0 °F 50.0 °F 100% 30.28 in 2.0 mi SE 4.6 mph - 0.01 in Rain Light Rain
2:22 AM 50.0 °F 50.0 °F 100% 30.26 in 2.0 mi South 3.5 mph - 0.00 in   Overcast
2:56 AM 50.0 °F 50.0 °F 100% 30.26 in 1.0 mi Calm Calm - 0.04 in Rain Heavy Rain
3:03 AM 50.0 °F 50.0 °F 100% 30.26 in 1.5 mi South 4.6 mph - 0.00 in Rain Light Rain
3:17 AM 50.0 °F 50.0 °F 100% 30.26 in 1.0 mi Calm Calm - 0.01 in Rain Light Rain
3:32 AM 50.0 °F 50.0 °F 100% 30.26 in 1.5 mi Variable 3.5 mph - 0.03 in Rain Light Rain
3:42 AM 50.0 °F 50.0 °F 100% 30.26 in 1.8 mi Calm Calm - 0.03 in Rain Light Rain
3:46 AM 50.0 °F 50.0 °F 100% 30.26 in 2.0 mi Calm Calm - 0.03 in Rain Light Rain
3:56 AM 50.0 °F 50.0 °F 100% 30.27 in 1.8 mi Calm Calm - 0.04 in Rain Light Rain
4:08 AM 50.0 °F 50.0 °F 100% 30.26 in 1.2 mi Calm Calm - 0.01 in Rain Light Rain
4:18 AM 50.0 °F 50.0 °F 100% 30.26 in 2.0 mi Calm Calm - 0.01 in Rain Light Rain
4:29 AM 50.0 °F 50.0 °F 100% 30.26 in 3.0 mi East 3.5 mph - 0.01 in   Overcast
4:56 AM 48.9 °F 48.9 °F 100% 30.27 in 4.0 mi Calm Calm - 0.01 in   Overcast
5:08 AM 48.2 °F 48.2 °F 100% 30.26 in 5.0 mi Calm Calm - N/A   Scattered Clouds
5:56 AM 48.9 °F 47.8 °F 96% 30.26 in 7.0 mi ENE 5.8 mph - N/A   Clear
6:56 AM 48.9 °F 46.9 °F 93% 30.25 in 7.0 mi ENE 8.1 mph - 0.01 in   Clear
7:56 AM 50.9 °F 45.9 °F 83% 30.25 in 9.0 mi Variable 6.9 mph - N/A   Clear
8:56 AM 54.0 °F 46.9 °F 77% 30.27 in 6.0 mi WNW 4.6 mph - N/A   Haze
9:56 AM 54.9 °F 48.9 °F 80% 30.27 in 3.0 mi Variable 3.5 mph - N/A   Haze
10:27 AM 53.6 °F 51.8 °F 94% 30.26 in 5.0 mi NW 8.1 mph - N/A   Mostly Cloudy
10:35 AM 53.6 °F 51.8 °F 94% 30.26 in 5.0 mi West 8.1 mph - N/A   Mostly Cloudy
10:56 AM 54.0 °F 50.9 °F 89% 30.26 in 4.0 mi NW 8.1 mph - N/A   Overcast
11:19 AM 55.4 °F 51.8 °F 88% 30.25 in 5.0 mi NNW 6.9 mph - N/A   Partly Cloudy
11:56 AM 57.9 °F 50.9 °F 77% 30.25 in 6.0 mi West 6.9 mph - N/A   Haze
12:56 PM 59.0 °F 46.9 °F 64% 30.24 in 9.0 mi NW 6.9 mph - N/A   Clear
1:56 PM 59.9 °F 46.9 °F 62% 30.20 in 8.0 mi NNW 4.6 mph - N/A   Clear
2:56 PM 59.0 °F 46.9 °F 64% 30.19 in 7.0 mi WNW 4.6 mph - N/A   Clear
3:56 PM 59.9 °F 45.0 °F 58% 30.20 in 8.0 mi NW 11.5 mph - N/A   Clear
4:56 PM 55.9 °F 45.9 °F 69% 30.19 in 8.0 mi NW 9.2 mph - N/A   Clear
5:56 PM 54.9 °F 46.9 °F 75% 30.18 in 7.0 mi SSW 4.6 mph - N/A   Clear
6:56 PM 50.9 °F 48.9 °F 93% 30.18 in 5.0 mi South 4.6 mph - N/A   Clear
7:56 PM 48.9 °F 47.8 °F 96% 30.19 in 7.0 mi Calm Calm - N/A   Clear
8:56 PM 47.8 °F 46.9 °F 97% 30.19 in 8.0 mi Calm Calm - N/A   Clear
9:56 PM 47.8 °F 46.9 °F 97% 30.19 in 8.0 mi SSE 6.9 mph - N/A   Clear
10:56 PM 50.0 °F 47.8 °F 92% 30.15 in 9.0 mi Variable 3.5 mph - N/A   Clear
11:56 PM 46.9 °F 45.9 °F 96% 30.15 in 9.0 mi SE 3.5 mph - N/A   Clear